Wind_Speed
41 43 44 46 46 47 48 50 52 54 56 58 59 59 59 59 60 61 62 62 63 65 66 68 69 70 69 69 69 69 68 68 68 64 62 59 55 53 51 51 52 51 51
43 44 46 47 48 49 50 53 55 57 57 58 59 59 60 62 62 62 62 63 64 66 68 69 69 69 69 68 68 67 65 63 61 56 51 47 43 41 41 40 39 39 40
45 46 48 50 51 52 54 56 58 58 59 60 60 62 64 65 63 61 61 62 64 67 68 68 68 68 67 66 64 60 56 52 49 45 39 36 35 35 33 32 32 32 33
49 50 52 54 55 56 57 58 59 61 61 63 64 65 65 62 59 59 60 63 65 66 66 67 66 65 63 59 54 49 46 42 40 36 31 30 30 29 29 28 28 28 28
53 54 55 55 56 57 58 60 61 63 64 66 64 61 60 57 56 58 61 62 64 64 64 64 62 58 53 49 45 42 39 36 33 29 27 26 27 27 26 26 24 24 24
55 55 55 55 57 59 61 63 65 65 64 61 57 54 53 54 56 59 60 61 61 61 60 57 53 49 46 43 40 37 33 30 27 24 23 23 24 23 22 20 19 19 19
54 54 54 56 58 61 65 66 63 60 57 53 50 50 52 54 56 57 58 58 58 56 52 48 44 42 40 37 33 30 27 25 22 20 19 20 18 17 15 14 13 12 12
51 52 55 57 59 61 63 62 59 52 49 47 47 50 52 53 53 54 54 53 50 46 43 41 39 37 34 30 26 23 20 17 15 14 14 13 12 11 10 9 8 8 7
49 52 54 56 59 61 59 55 50 46 45 46 47 49 50 50 50 49 47 44 41 38 37 36 34 30 27 22 18 14 10 9 9 9 8 8 7 7 6 6 6 6 5
49 52 55 57 58 56 52 48 44 44 45 46 46 47 47 46 44 41 38 35 33 32 32 31 28 24 19 14 10 7 5 4 5 4 4 5 5 6 6 7 7 7 7
50 52 53 51 48 45 43 42 42 43 44 44 44 43 41 39 36 33 30 28 27 26 25 23 19 16 11 8 6 5 5 5 5 6 6 6 7 7 8 9 10 10 10
47 47 44 42 41 40 39 40 41 42 42 41 39 36 33 30 28 26 25 24 22 21 18 15 12 9 7 7 7 7 8 8 8 8 8 8 8 9 10 11 11 11 9
39 37 36 35 37 38 39 39 39 38 36 34 31 28 26 24 22 21 21 20 19 16 13 10 7 6 7 8 9 10 10 10 9 9 9 9 10 11 12 12 12 11 8
31 32 33 34 35 36 37 36 34 31 28 25 23 22 21 19 18 18 18 17 16 12 8 6 6 7 9 10 10 10 10 10 9 9 10 11 12 13 13 13 13 12 10
30 32 33 34 34 33 32 29 26 23 21 20 20 19 18 17 16 15 14 13 11 8 5 5 7 9 11 11 11 11 10 9 10 11 12 13 13 14 15 15 15 15 14
30 31 32 31 29 27 24 21 19 18 18 18 18 17 16 15 14 12 11 9 6 4 4 7 10 12 12 12 11 10 10 10 10 12 13 14 15 16 17 17 18 17 16
30 30 29 27 24 21 19 17 16 16 16 17 16 15 14 13 11 10 8 6 4 5 8 11 12 13 12 12 11 11 10 11 11 13 14 14 16 17 18 20 21 20 19
29 27 25 22 19 18 16 16 16 16 16 15 14 13 12 10 9 7 6 4 6 9 12 13 13 13 13 12 12 11 11 11 12 13 14 15 16 18 20 21 22 22 22
27 24 22 19 17 16 16 16 16 15 14 13 11 10 9 8 7 6 6 7 10 12 13 14 14 13 13 12 11 11 11 12 12 13 14 16 17 19 21 22 23 24 24
24 22 20 18 17 16 16 15 14 13 12 10 8 7 7 6 6 6 8 10 13 14 14 14 13 13 12 12 11 11 11 11 12 13 14 16 17 19 20 22 23 24 25
22 20 18 17 16 15 15 13 12 10 8 6 5 5 5 6 7 8 10 12 13 13 13 12 12 12 12 11 11 10 10 11 12 13 15 16 17 18 19 20 21 23 24
20 19 17 16 15 14 13 11 10 7 5 5 4 5 5 7 9 11 12 13 13 12 12 11 11 11 11 11 11 10 11 11 12 14 15 16 17 17 18 18 19 20 21
20 19 17 16 15 13 11 10 8 7 6 6 6 7 8 10 12 13 14 14 12 11 10 9 10 11 11 11 10 10 11 12 13 14 15 16 16 17 17 17 18 18 19
23 21 19 17 15 13 12 11 10 9 8 8 9 10 11 13 14 15 15 14 12 11 9 9 9 10 10 10 11 11 12 12 13 13 14 16 16 17 17 17 17 17 18
26 24 22 20 17 16 14 14 13 12 12 12 12 13 14 16 16 17 16 14 12 11 10 9 9 9 10 11 11 12 12 12 13 13 13 14 15 16 15 15 15 16 16
30 28 26 24 21 19 18 17 16 16 16 16 16 16 16 17 17 16 15 14 12 11 10 10 10 10 11 11 12 12 12 13 13 13 13 13 14 14 13 13 13 13 13
Wind_Direction
281 282 282 284 285 287 289 290 292 293 295 296 296 296 296 296 297 298 298 298 299 301 302 302 301 301 299 298 297 296 295 294 292 290 289 288 286 284 282 279 277 274 271
284 285 287 288 289 290 291 292 293 294 295 294 295 295 296 297 297 298 298 299 301 302 303 302 302 300 299 298 297 296 295 294 293 292 291 289 286 285 284 282 279 275 271
285 287 290 291 292 293 292 293 294 293 294 294 294 295 296 296 297 298 300 302 303 303 303 302 302 301 299 298 297 297 296 295 295 294 291 288 287 287 286 284 281 276 272
287 289 291 291 292 292 292 292 293 292 292 292 292 293 295 297 299 300 302 303 303 303 303 303 302 301 300 300 299 298 297 296 295 294 291 288 289 288 287 285 281 277 273
288 290 291 291 292 292 292 291 291 290 290 291 292 294 297 300 301 302 303 303 304 304 304 304 303 303 302 302 301 300 298 296 294 292 292 290 290 289 288 287 283 277 272
288 290 291 291 291 291 290 288 287 288 289 291 294 298 302 303 303 303 304 305 305 305 305 305 305 305 305 304 303 300 297 296 294 292 292 292 292 292 291 289 283 277 272
287 289 290 289 288 289 289 287 287 288 291 295 300 303 304 303 304 305 306 306 307 307 307 308 308 309 308 306 303 299 296 294 293 293 294 295 298 297 296 292 288 284 275
287 288 288 288 289 289 290 290 291 295 300 303 304 304 303 304 305 306 307 308 308 309 310 312 313 313 312 310 307 301 297 294 294 296 297 301 304 305 308 305 300 293 283
286 286 287 288 289 290 291 293 298 303 304 304 304 304 304 306 307 307 308 309 310 312 314 317 319 319 318 316 313 309 303 299 300 303 308 315 323 332 338 338 331 322 307
284 285 286 287 288 290 294 299 304 305 305 305 305 305 306 307 308 308 309 311 313 316 319 321 323 324 326 328 329 332 331 330 334 343 359 9 8 6 0 353 345 336 324
283 285 286 289 293 298 303 305 305 305 305 306 306 307 308 308 308 309 311 314 317 320 323 325 328 332 340 351 9 29 40 44 48 50 42 30 21 10 358 348 339 330 321
284 287 292 297 301 304 305 305 305 306 307 308 309 309 309 309 310 312 315 319 323 327 330 334 340 353 12 35 52 60 65 67 62 55 43 31 19 5 355 348 343 339 334
293 298 303 304 305 305 306 307 308 309 310 311 311 311 312 313 314 317 321 325 330 336 341 349 5 28 51 62 69 74 74 69 62 52 39 26 15 5 1 1 2 3 8
304 306 307 306 307 309 310 312 313 314 314 314 316 317 318 318 319 322 326 330 336 344 353 9 40 60 68 73 77 79 75 67 57 43 32 23 17 16 19 24 30 37 50
308 309 310 311 313 315 316 318 319 319 320 321 323 324 324 324 325 327 329 332 339 352 16 51 70 75 77 78 78 76 71 64 50 38 33 33 35 37 38 44 50 56 67
313 313 315 317 319 321 322 323 325 326 327 329 331 331 331 331 331 333 336 343 357 26 69 85 86 84 82 79 76 72 67 57 46 41 43 49 51 50 52 54 58 66 72
320 321 323 324 325 327 328 330 331 332 333 334 336 336 336 336 338 342 349 3 35 82 99 97 91 85 79 76 75 70 63 56 50 50 55 59 61 63 62 60 61 68 75
326 327 328 328 329 331 333 334 335 335 336 338 339 339 342 344 347 357 11 44 93 107 104 98 90 84 79 76 73 69 62 58 58 60 66 70 72 72 68 65 65 68 73
332 332 332 332 332 334 334 334 334 335 336 338 342 345 351 360 12 29 53 90 108 110 104 98 90 84 79 74 70 67 64 64 66 68 74 79 81 79 75 72 70 70 72
338 338 337 336 336 337 336 336 336 336 337 341 347 356 9 25 38 58 81 103 112 110 105 97 88 79 74 71 67 67 68 71 75 78 82 87 89 84 80 77 74 73 72
347 346 344 343 342 341 341 342 342 343 346 353 3 16 36 49 63 78 94 108 114 111 104 94 83 75 71 68 66 70 74 79 86 89 91 94 94 91 87 83 79 76 75
355 354 353 352 351 350 351 354 357 4 16 27 40 58 69 75 82 92 100 108 112 110 102 90 79 73 70 69 70 76 83 88 94 97 98 99 100 98 95 92 87 82 81
10 8 6 4 4 6 10 17 27 40 54 64 79 88 91 93 95 97 102 107 109 106 98 86 75 72 71 72 77 84 93 97 102 104 104 103 103 102 100 98 94 90 87
22 20 18 18 21 26 32 41 51 59 70 81 90 96 98 99 98 99 102 104 104 101 92 81 76 73 72 77 82 91 98 104 110 111 109 106 104 103 101 99 96 92 89
31 30 31 34 38 44 50 56 61 67 76 86 94 98 100 100 99 98 99 99 98 93 85 79 75 73 78 84 87 93 100 108 114 115 114 111 108 104 99 95 93 90 88
38 38 40 43 48 52 57 61 67 74 80 87 92 95 97 98 97 97 96 94 91 86 81 78 79 82 84 87 89 94 100 107 113 115 116 115 112 106 100 95 91 89 87
Height
5762 5759 5756 5753 5749 5746 5743 5739 5734 5729 5724 5718 5712 5706 5701 5695 5688 5682 5675 5668 5662 5655 5647 5640 5632 5623 5616 5608 5600 5593 5586 5580 5576 5574 5568 5564 5559 5556 5553 5551 5550 5550 5550
5752 5749 5746 5742 5738 5734 5731 5726 5722 5716 5710 5704 5698 5692 5686 5681 5674 5667 5660 5654 5647 5639 5631 5623 5615 5606 5599 5590 5583 5575 5568 5562 5557 5554 5551 5547 5543 5540 5538 5536 5535 5534 5534
5741 5738 5735 5731 5727 5722 5718 5713 5707 5702 5696 5689 5683 5678 5672 5666 5660 5652 5646 5639 5632 5623 5615 5606 5598 5590 5582 5573 5565 5559 5552 5547 5542 5539 5537 5534 5531 5528 5526 5525 5523 5522 5522
5730 5727 5723 5719 5714 5709 5704 5699 5693 5687 5681 5675 5669 5663 5657 5652 5645 5638 5632 5625 5617 5608 5599 5590 5581 5573 5565 5557 5551 5544 5539 5535 5531 5528 5526 5524 5522 5519 5517 5516 5514 5513 5512
5718 5714 5710 5706 5701 5696 5690 5685 5679 5673 5667 5661 5655 5649 5643 5638 5632 5625 5618 5611 5603 5594 5584 5575 5566 5558 5550 5543 5538 5533 5528 5524 5521 5519 5517 5516 5514 5512 5510 5508 5506 5505 5504
5705 5701 5697 5692 5687 5682 5676 5670 5664 5658 5653 5647 5641 5636 5631 5625 5619 5612 5605 5597 5588 5579 5570 5561 5553 5545 5538 5532 5527 5522 5518 5515 5513 5512 5510 5509 5507 5505 5503 5501 5500 5499 5498
5692 5688 5684 5679 5674 5668 5662 5656 5650 5645 5639 5634 5629 5624 5619 5614 5606 5599 5591 5583 5574 5566 5557 5550 5542 5535 5528 5522 5517 5513 5510 5508 5507 5506 5505 5503 5502 5500 5498 5497 5495 5494 5493
5680 5676 5672 5666 5661 5655 5650 5644 5638 5632 5627 5623 5618 5613 5607 5601 5594 5587 5578 5570 5562 5554 5547 5540 5533 5526 5520 5514 5510 5507 5505 5503 5502 5502 5501 5500 5498 5497 5495 5494 5492 5491 5490
5668 5664 5660 5655 5650 5644 5638 5632 5627 5622 5617 5612 5607 5601 5595 5589 5582 5575 5567 5560 5553 5546 5539 5532 5526 5520 5514 5509 5505 5503 5502 5501 5501 5500 5500 5498 5497 5495 5494 5492 5491 5490 5489
5657 5653 5648 5643 5638 5632 5626 5621 5616 5612 5607 5601 5596 5590 5584 5577 5571 5564 5558 5552 5546 5540 5533 5527 5521 5516 5511 5507 5504 5502 5502 5501 5501 5500 5500 5499 5497 5496 5494 5492 5491 5489 5488
5646 5642 5637 5631 5626 5621 5616 5611 5606 5602 5596 5591 5585 5579 5573 5567 5561 5556 5551 5546 5541 5535 5530 5524 5519 5514 5511 5508 5505 5504 5503 5503 5502 5502 5501 5500 5498 5497 5495 5493 5490 5488 5486
5636 5631 5626 5620 5616 5612 5607 5602 5596 5591 5586 5580 5574 5569 5564 5559 5554 5549 5545 5540 5536 5531 5527 5522 5518 5515 5512 5509 5508 5507 5506 5506 5505 5504 5503 5502 5500 5498 5495 5492 5489 5486 5483
5626 5622 5618 5613 5607 5603 5598 5592 5587 5581 5576 5571 5566 5561 5557 5552 5548 5544 5540 5536 5532 5529 5525 5522 5519 5517 5514 5512 5511 5510 5509 5509 5508 5507 5506 5504 5501 5499 5496 5492 5489 5486 5483
5619 5615 5611 5605 5600 5594 5589 5583 5577 5572 5568 5563 5559 5555 5551 5547 5544 5541 5537 5534 5530 5528 5525 5523 5521 5519 5517 5515 5514 5514 5513 5512 5511 5510 5508 5506 5503 5500 5497 5494 5491 5488 5486
5612 5608 5603 5597 5591 5585 5580 5575 5570 5566 5562 5558 5555 5551 5547 5544 5541 5538 5535 5532 5530 5528 5526 5525 5524 5522 5520 5519 5519 5518 5517 5516 5515 5513 5511 5508 5505 5503 5500 5497 5495 5492 5491
5606 5600 5594 5589 5583 5578 5574 5569 5565 5562 5558 5554 5551 5547 5544 5541 5538 5536 5533 5531 5530 5529 5528 5527 5526 5525 5524 5523 5523 5522 5521 5520 5518 5516 5514 5512 5510 5507 5505 5503 5500 5498 5496
5599 5593 5587 5582 5577 5573 5569 5565 5562 5558 5555 5551 5548 5545 5542 5539 5537 5535 5533 5531 5531 5530 5530 5530 5529 5529 5528 5527 5526 5525 5524 5523 5521 5520 5518 5517 5515 5513 5511 5509 5506 5504 5502
5592 5587 5582 5577 5573 5569 5565 5562 5559 5555 5552 5549 5547 5544 5541 5539 5537 5535 5533 5533 5532 5533 5533 5533 5533 5532 5532 5531 5530 5529 5528 5527 5525 5524 5523 5522 5521 5519 5518 5516 5514 5512 5510
5587 5582 5577 5573 5569 5565 5562 5559 5556 5553 5550 5548 5545 5543 5541 5539 5537 5536 5535 5534 5535 5535 5536 5537 5537 5536 5536 5535 5534 5533 5532 5531 5530 5529 5528 5528 5527 5526 5525 5523 5522 5520 5518
5583 5578 5573 5569 5566 5563 5559 5556 5554 5551 5549 5547 5545 5543 5542 5540 5539 5538 5537 5537 5538 5539 5540 5540 5540 5540 5539 5539 5538 5537 5536 5535 5535 5534 5534 5533 5533 5533 5532 5531 5530 5529 5527
5581 5576 5571 5567 5564 5560 5557 5554 5552 5550 5548 5546 5545 5544 5542 5541 5540 5540 5539 5540 5541 5543 5543 5544 5544 5544 5543 5542 5542 5541 5540 5540 5540 5540 5539 5539 5539 5539 5539 5539 5538 5537 5536
5580 5575 5570 5566 5563 5559 5556 5553 5551 5549 5547 5546 5545 5545 5544 5543 5543 5543 5543 5544 5545 5546 5547 5547 5547 5547 5546 5546 5545 5545 5545 5545 5545 5545 5545 5545 5545 5545 5545 5545 5545 5545 5545
5580 5575 5571 5566 5562 5559 5556 5553 5551 5549 5548 5547 5547 5546 5546 5546 5546 5546 5547 5548 5549 5550 5551 5551 5551 5550 5550 5549 5549 5549 5549 5549 5550 5551 5551 5551 5551 5552 5552 5552 5552 5552 5552
5582 5577 5572 5567 5563 5560 5557 5554 5553 5551 5550 5549 5549 5549 5549 5550 5550 5550 5551 5552 5553 5554 5554 5554 5554 5554 5553 5553 5553 5553 5553 5554 5555 5556 5557 5557 5558 5558 5559 5559 5559 5559 5559
5586 5580 5575 5570 5566 5562 5560 5557 5556 5554 5553 5553 5553 5553 5553 5554 5555 5555 5556 5557 5557 5558 5558 5558 5557 5557 5557 5557 5557 5557 5557 5558 5560 5561 5562 5563 5564 5565 5565 5565 5565 5566 5566
5591 5585 5579 5574 5570 5567 5564 5562 5560 5559 5558 5558 5558 5558 5558 5559 5560 5560 5561 5561 5562 5562 5562 5561 5561 5561 5561 5561 5561 5561 5562 5563 5564 5565 5567 5568 5569 5570 5570 5571 5571 5571 5572